GW2092 Weather Reports


time (UTC)temp
F
wind
direction
speed
knots
gust
knots
rain 1hr
in
rain 24hr
in
rain mn
in
humidity
%
barometer
mb
20260831183055 103 118 0.0 3.5 0.00 0.00 0.00 33 1017.6
20260831181549 102 161 0.9 4.3 0.00 0.00 0.00 33 1017.7
20260831180055 100 70 0.0 2.6 0.00 0.00 0.00 36 1017.9
20260831174548 101 134 0.9 6.1 0.00 0.00 0.00 35 1018.2
20260831173048 101 158 0.0 4.3 0.00 0.00 0.00 36 1018.2
20260831171544 100 257 0.0 4.3 0.00 0.00 0.00 36 1018.4
20260831170054 99 262 0.0 5.2 0.00 0.00 0.00 39 1018.5
20260831164547 99 0 0.0 4.3 0.00 0.00 0.00 40 1018.8
20260831163049 98 0 0.0 4.3 0.00 0.00 0.00 42 1018.8
20260831161603 98 177 0.9 4.3 0.00 0.00 0.00 41 1018.8
20260831160055 97 199 0.0 4.3 0.00 0.00 0.00 43 1018.8
20260831154618 96 124 0.0 5.2 0.00 0.00 0.00 45 1018.7
20260831153055 95 0 0.0 1.7 0.00 0.00 0.00 46 1018.6
20260831151555 93 245 0.9 5.2 0.00 0.00 0.00 49 1018.7
20260831150051 91 115 0.9 4.3 0.00 0.00 0.00 52 1018.6
20260831144552 89 200 0.9 4.3 0.00 0.00 0.00 55 1018.7
20260831143103 87 180 0.0 5.2 0.00 0.00 0.00 58 1018.8
20260831141604 85 0 0.0 4.3 0.00 0.00 0.00 59 1018.9
20260831140055 83 234 0.0 3.5 0.00 0.00 0.00 62 1019.0
20260831134550 82 203 0.9 2.6 0.00 0.00 0.00 63 1018.9
20260831133046 80 184 0.0 0.9 0.00 0.00 0.00 65 1018.7
20260831131545 78 0 0.0 0.9 0.00 0.00 0.00 67 1018.5
20260831130057 77 0 0.0 0.9 0.00 0.00 0.00 68 1018.4
20260831124545 76 0 0.0 0.0 0.00 0.00 0.00 69 1018.4
20260831123055 75 0 0.0 0.9 0.00 0.00 0.00 70 1018.0
20260831121554 74 0 0.0 0.0 0.00 0.00 0.00 71 1017.8
20260831120046 74 0 0.0 0.9 0.00 0.00 0.00 71 1017.7
20260831114557 74 0 0.0 0.9 0.00 0.00 0.00 70 1017.3
20260831113053 74 0 0.0 0.9 0.00 0.00 0.00 70 1017.2
20260831111550 74 215 0.0 0.9 0.00 0.00 0.00 69 1017.2
20260831110057 75 210 0.0 0.9 0.00 0.00 0.00 68 1017.1
20260831104550 75 0 0.0 0.9 0.00 0.00 0.00 67 1017.0
20260831103046 76 0 0.0 1.7 0.00 0.00 0.00 66 1016.9
20260831101556 76 0 0.0 1.7 0.00 0.00 0.00 65 1016.9
20260831100050 77 0 0.0 3.5 0.00 0.00 0.00 64 1016.8
20260831094545 76 225 0.0 3.5 0.00 0.00 0.00 64 1016.8
20260831093046 76 0 0.0 2.6 0.00 0.00 0.00 63 1016.9
20260831091548 77 186 0.0 4.3 0.00 0.00 0.00 62 1016.7
20260831090045 76 135 0.0 1.7 0.00 0.00 0.00 62 1016.5
20260831084556 76 0 0.0 1.7 0.00 0.00 0.00 62 1016.6
20260831083056 76 0 0.0 0.9 0.00 0.00 0.00 62 1016.6
20260831081545 76 207 0.0 0.0 0.00 0.00 0.00 62 1016.4
20260831080057 76 0 0.0 0.9 0.00 0.00 0.00 61 1016.2
20260831074547 77 0 0.0 0.9 0.00 0.00 0.00 60 1016.3
20260831073052 77 0 0.0 0.9 0.00 0.00 0.00 60 1016.3
20260831071547 78 188 0.0 1.7 0.00 0.00 0.00 59 1016.1
20260831070047 78 0 0.0 2.6 0.00 0.00 0.00 59 1016.1
20260831064605 79 143 0.0 3.5 0.00 0.00 0.00 59 1016.0
20260831063048 79 0 0.0 2.6 0.00 0.00 0.00 59 1016.1
20260831061546 79 0 0.0 1.7 0.00 0.00 0.00 59 1016.2
20260831060059 79 141 0.0 2.6 0.00 0.00 0.00 60 1016.2
20260831054601 79 169 0.0 2.6 0.00 0.00 0.00 60 1016.4
20260831053046 80 0 0.0 1.7 0.00 0.00 0.00 60 1016.5
20260831051552 80 0 0.0 2.6 0.00 0.00 0.00 59 1016.5
20260831050051 81 0 0.0 2.6 0.00 0.00 0.00 59 1016.3
20260831044604 81 0 0.0 2.6 0.00 0.00 0.00 58 1016.3
20260831043044 81 127 0.0 2.6 0.00 0.00 0.00 58 1016.2
20260831041609 81 0 0.0 1.7 0.00 0.00 0.00 57 1016.0
20260831040049 81 200 0.0 2.6 0.00 0.00 0.00 56 1015.9
20260831034546 81 0 0.0 2.6 0.00 0.00 0.00 56 1015.7
20260831033051 81 139 0.0 0.9 0.00 0.00 0.00 55 1015.5
20260831031545 82 0 0.0 1.7 0.00 0.00 0.00 53 1015.5
20260831030058 82 0 0.0 1.7 0.00 0.00 0.00 53 1015.4
20260831024553 82 141 0.0 0.0 0.00 0.00 0.00 53 1015.1
20260831023046 82 0 0.0 0.0 0.00 0.00 0.00 53 1015.1
20260831021546 83 0 0.0 0.0 0.00 0.00 0.00 52 1014.7
20260831020055 83 0 0.0 0.0 0.00 0.00 0.00 51 1014.6
20260831014548 84 0 0.0 0.0 0.00 0.00 0.00 50 1014.5
20260831013052 86 0 0.0 0.0 0.00 0.00 0.00 48 1014.5
20260831011557 87 0 0.0 0.0 0.00 0.00 0.00 46 1014.4
20260831010049 89 0 0.0 0.0 0.00 0.00 0.00 44 1014.3
20260831004547 90 0 0.0 0.9 0.00 0.00 0.00 43 1014.4
20260831003054 92 0 0.0 0.9 0.00 0.00 0.00 41 1014.4
20260831001551 93 0 0.0 2.6 0.00 0.00 0.00 40 1014.4
20260831000049 94 195 0.0 3.5 0.00 0.00 0.00 38 1014.5
20260830234558 95 113 0.0 4.3 0.00 0.00 0.00 37 1014.5
20260830233054 96 203 0.0 4.3 0.00 0.00 0.00 36 1014.6
20260830231559 97 165 0.0 5.2 0.00 0.00 0.00 35 1014.6
20260830230049 98 224 0.9 4.3 0.00 0.00 0.00 34 1014.5
20260830224554 100 0 0.9 4.3 0.00 0.00 0.00 32 1014.6
20260830223057 101 163 0.0 4.3 0.00 0.00 0.00 32 1014.6
20260830221552 100 212 0.9 5.2 0.00 0.00 0.00 33 1014.7
20260830220050 100 0 0.0 3.5 0.00 0.00 0.00 33 1014.6
20260830214557 100 139 0.0 3.5 0.00 0.00 0.00 32 1014.7
20260830213051 102 210 0.9 5.2 0.00 0.00 0.00 30 1014.9
20260830211545 103 84 0.0 5.2 0.00 0.00 0.00 30 1014.9
20260830210047 103 154 0.9 3.5 0.00 0.00 0.00 30 1014.8
20260830204548 103 319 0.0 4.3 0.00 0.00 0.00 31 1015.1
20260830203047 102 129 0.0 7.8 0.00 0.00 0.00 31 1015.1
20260830201558 102 0 0.0 4.3 0.00 0.00 0.00 31 1015.4
20260830200043 101 243 1.7 6.1 0.00 0.00 0.00 33 1015.5
20260830194551 101 0 0.0 7.8 0.00 0.00 0.00 32 1015.7
20260830193049 102 226 1.7 7.8 0.00 0.00 0.00 33 1015.8
20260830191557 100 0 0.9 6.1 0.00 0.00 0.00 35 1015.8
20260830190051 100 95 0.9 7.0 0.00 0.00 0.00 35 1016.2
20260830184545 100 210 1.7 7.0 0.00 0.00 0.00 36 1016.3